Location: Woodhurst
(52.3667°N, 0.0667°W)
Time: 22:50:09
(UTC+00:00)

Cosmos 405 Rocket - Pass Details

Date: 19 May 2025
Orbit: 414 x 448 km, 81.2° (Epoch: 12 June)

Event Time Altitude Azimuth Distance (km) Brightness Sun altitude
Rises 23:09:01 0° 340° (NNW) 2,463 7.9 -16.9°
Reaches altitude 10° 23:11:12 10° 331° (NNW) 1,580 6.3 -17.0°
Maximum altitude 23:14:22 34° 265° (W) 746 3.5 -17.1°
Enters shadow 23:15:23 28° 228° (SW) 868 3.5 -17.1°
